2021-006EK (47684 NORAD) Tracking and Keplerian Element Data
This shows tracking and keplerian element data for the satellite.
Feedback or suggestion? Click here.
Element | Value |
Catalog | 47684 |
Name | 2021-006EK |
Epoch Orbit | 472 |
Epoch Day | 53.84504635 |
Epoch Year | 2021 |
RAAN | 117.0521 |
Inclination | 97.5065 |
Eccentricity | 0.0009016 |
Argument of Perigee | 151.4394 |
Mean Anonmoly | 208.7333 |
Mean Motion | 15.12850772 |
Decay Rate | 9.82E-06 |
L1 | 1 47684U 21006EK 21053.84504635 .00000982 00000-0 59514-4 0 9991 |
L2 | 2 47684 97.5065 117.0521 0009016 151.4394 208.7333 15.12850772 4720 |
Live tracking and technical data element details for 2021-006EK (NORAD 47684). 2021-006EK can be tracked NOW for your location showing map with azimuth and elevation plus other details from your city location.
Track the satellite on the map from your city or location and see movement details for azimuth, elevation, latitude, longitude, range, height, and movement on the map or in text.
IsCatalogInMostPopularTable: catalog: 47684, numindb: 4
Update: records affected: 1
GetName: 47684 2021-006EK
Hit Count: updated at: Mon, 01 Mar 2021 16:18:17 GMT